| time (UTC) | temp F | wind direction | speed MPH | gust MPH | rain 1hr in | rain 24hr in | rain mn in | humidity % | barometer mb |
| 20260505153102 | 74 | 5 | 1.0 | 13.0 | 0.00 | 0.00 | 0.00 | 54 | 1009.9 |
| 20260505152553 | 74 | 5 | 2.0 | 9.0 | 0.00 | 0.00 | 0.00 | 53 | 1010.0 |
| 20260505152501 | 74 | 5 | 2.0 | 9.0 | 0.00 | 0.00 | 0.00 | 52 | 1010.0 |
| 20260505152050 | 74 | 5 | 2.0 | 7.0 | 0.00 | 0.00 | 0.00 | 54 | 1010.0 |
| 20260505151542 | 74 | 5 | 1.0 | 7.0 | 0.00 | 0.00 | 0.00 | 54 | 1010.0 |
| 20260505151040 | 73 | 5 | 1.0 | 8.0 | 0.00 | 0.00 | 0.00 | 54 | 1010.0 |
| 20260505150534 | 73 | 5 | 2.0 | 8.0 | 0.00 | 0.00 | 0.00 | 52 | 1010.2 |
| 20260505140546 | 68 | 5 | 0.0 | 8.0 | 0.00 | 0.00 | 0.00 | 62 | 1010.7 |
| 20260505124552 | 60 | 5 | 0.0 | 4.0 | 0.00 | 0.00 | 0.00 | 67 | 1011.1 |
| 20260505124051 | 59 | 5 | 0.0 | 2.0 | 0.00 | 0.00 | 0.00 | 68 | 1011.0 |
| 20260505123538 | 58 | 5 | 0.0 | 1.0 | 0.00 | 0.00 | 0.00 | 68 | 1010.9 |
| 20260505123038 | 57 | 5 | 0.0 | 1.0 | 0.00 | 0.00 | 0.00 | 70 | 1010.9 |
| 20260505122531 | 56 | 5 | 0.0 | 0.0 | 0.00 | 0.00 | 0.00 | 70 | 1010.7 |
| 20260505122030 | 56 | 5 | 0.0 | 0.0 | 0.00 | 0.00 | 0.00 | 71 | 1010.8 |
| 20260505121533 | 55 | 5 | 0.0 | 0.0 | 0.00 | 0.00 | 0.00 | 72 | 1010.8 |
| 20260505121022 | 55 | 5 | 0.0 | 0.0 | 0.00 | 0.00 | 0.00 | 72 | 1010.9 |
| 20260505120514 | 54 | 5 | 0.0 | 0.0 | 0.00 | 0.00 | 0.00 | 74 | 1010.9 |
| 20260505120014 | 54 | 5 | 0.0 | 0.0 | 0.00 | 0.00 | 0.00 | 75 | 1010.8 |
| 20260505115504 | 53 | 5 | 0.0 | 1.0 | 0.00 | 0.00 | 0.00 | 75 | 1010.8 |
| 20260505115008 | 53 | 5 | 0.0 | 1.0 | 0.00 | 0.00 | 0.00 | 75 | 1010.8 |
| 20260505114503 | 52 | 5 | 0.0 | 0.0 | 0.00 | 0.00 | 0.00 | 75 | 1010.9 |
| 20260505114005 | 52 | 5 | 0.0 | 2.0 | 0.00 | 0.00 | 0.00 | 75 | 1011.0 |
| 20260505113557 | 52 | 5 | 0.0 | 2.0 | 0.00 | 0.00 | 0.00 | 75 | 1011.0 |
| 20260505113116 | 51 | 5 | 0.0 | 0.0 | 0.00 | 0.00 | 0.00 | 75 | 1010.8 |
| 20260505112552 | 51 | 5 | 0.0 | 0.0 | 0.00 | 0.00 | 0.00 | 75 | 1010.7 |
| 20260505112054 | 50 | 5 | 0.0 | 0.0 | 0.00 | 0.00 | 0.00 | 75 | 1010.7 |
| 20260505111544 | 50 | 5 | 0.0 | 0.0 | 0.00 | 0.00 | 0.00 | 75 | 1010.6 |
| 20260505111045 | 50 | 5 | 0.0 | 0.0 | 0.00 | 0.00 | 0.00 | 75 | 1010.5 |
| 20260505110535 | 50 | 5 | 0.0 | 0.0 | 0.00 | 0.00 | 0.00 | 75 | 1010.4 |
| 20260505102012 | 49 | 5 | 0.0 | 0.0 | 0.00 | 0.00 | 0.00 | 74 | 1010.4 |
| 20260505101504 | 49 | 5 | 0.0 | 0.0 | 0.00 | 0.00 | 0.00 | 74 | 1010.4 |
| 20260505101003 | 49 | 5 | 0.0 | 0.0 | 0.00 | 0.00 | 0.00 | 74 | 1010.3 |
| 20260505100601 | 49 | 5 | 0.0 | 0.0 | 0.00 | 0.00 | 0.00 | 74 | 1010.4 |
| 20260505095552 | 49 | 5 | 0.0 | 0.0 | 0.00 | 0.00 | 0.00 | 74 | 1010.3 |
| 20260505095053 | 50 | 5 | 0.0 | 0.0 | 0.00 | 0.00 | 0.00 | 74 | 1010.2 |
| 20260505094540 | 50 | 5 | 0.0 | 0.0 | 0.00 | 0.00 | 0.00 | 74 | 1010.1 |
| 20260505094044 | 50 | 5 | 0.0 | 0.0 | 0.00 | 0.00 | 0.00 | 74 | 1010.1 |
| 20260505093530 | 50 | 5 | 0.0 | 0.0 | 0.00 | 0.00 | 0.00 | 74 | 1010.0 |
| 20260505093036 | 50 | 5 | 0.0 | 0.0 | 0.00 | 0.00 | 0.00 | 74 | 1010.0 |
| 20260505092528 | 50 | 5 | 0.0 | 0.0 | 0.00 | 0.00 | 0.00 | 73 | 1010.0 |
| 20260505092032 | 50 | 5 | 0.0 | 2.0 | 0.00 | 0.00 | 0.00 | 74 | 1009.8 |
| 20260505091518 | 51 | 5 | 0.0 | 2.0 | 0.00 | 0.00 | 0.00 | 74 | 1009.9 |
| 20260505091021 | 51 | 5 | 0.0 | 2.0 | 0.00 | 0.00 | 0.00 | 73 | 1010.0 |
| 20260505090510 | 51 | 5 | 0.0 | 2.0 | 0.00 | 0.00 | 0.00 | 73 | 1010.0 |
| 20260505090026 | 51 | 5 | 0.0 | 2.0 | 0.00 | 0.00 | 0.00 | 73 | 1010.0 |
| 20260505085504 | 51 | 5 | 0.0 | 2.0 | 0.00 | 0.00 | 0.00 | 73 | 1010.1 |
| 20260505085056 | 51 | 5 | 0.0 | 0.0 | 0.00 | 0.00 | 0.00 | 73 | 1010.1 |
| 20260505085006 | 51 | 5 | 0.0 | 0.0 | 0.00 | 0.00 | 0.00 | 73 | 1010.1 |
| 20260505084557 | 51 | 5 | 0.0 | 0.0 | 0.00 | 0.00 | 0.00 | 73 | 1010.2 |
| 20260505084051 | 50 | 5 | 0.0 | 0.0 | 0.00 | 0.00 | 0.00 | 72 | 1010.4 |
| 20260505084002 | 50 | 5 | 0.0 | 0.0 | 0.00 | 0.00 | 0.00 | 72 | 1010.4 |
| 20260505083558 | 50 | 5 | 0.0 | 1.0 | 0.00 | 0.00 | 0.00 | 72 | 1010.4 |
| 20260505083102 | 50 | 5 | 0.0 | 1.0 | 0.00 | 0.00 | 0.00 | 72 | 1010.5 |
| 20260505083006 | 50 | 5 | 0.0 | 1.0 | 0.00 | 0.00 | 0.00 | 72 | 1010.5 |
| 20260505082554 | 50 | 5 | 0.0 | 0.0 | 0.00 | 0.00 | 0.00 | 71 | 1010.4 |
| 20260505082050 | 50 | 5 | 0.0 | 0.0 | 0.00 | 0.00 | 0.00 | 71 | 1010.5 |
| 20260505081558 | 50 | 5 | 0.0 | 0.0 | 0.00 | 0.00 | 0.00 | 71 | 1010.5 |
| 20260505081047 | 50 | 5 | 0.0 | 0.0 | 0.00 | 0.00 | 0.00 | 70 | 1010.3 |
| 20260505080550 | 50 | 5 | 0.0 | 0.0 | 0.00 | 0.00 | 0.00 | 70 | 1010.1 |
| 20260505080044 | 50 | 5 | 0.0 | 0.0 | 0.00 | 0.00 | 0.00 | 70 | 1010.3 |
| 20260505075538 | 50 | 5 | 0.0 | 2.0 | 0.00 | 0.00 | 0.00 | 70 | 1010.3 |
| 20260505075026 | 50 | 5 | 0.0 | 2.0 | 0.00 | 0.00 | 0.00 | 70 | 1010.1 |
| 20260505074528 | 50 | 5 | 0.0 | 0.0 | 0.00 | 0.00 | 0.00 | 70 | 1009.9 |
| 20260505074018 | 50 | 5 | 0.0 | 0.0 | 0.00 | 0.00 | 0.00 | 69 | 1009.7 |
| 20260505073521 | 50 | 5 | 0.0 | 0.0 | 0.00 | 0.00 | 0.00 | 70 | 1009.8 |
| 20260505073023 | 50 | 5 | 0.0 | 0.0 | 0.00 | 0.00 | 0.00 | 70 | 1009.7 |
| 20260505072522 | 50 | 5 | 0.0 | 0.0 | 0.00 | 0.00 | 0.00 | 70 | 1009.8 |
| 20260505072013 | 49 | 5 | 0.0 | 0.0 | 0.00 | 0.00 | 0.00 | 70 | 1009.9 |
| 20260505071510 | 49 | 5 | 0.0 | 0.0 | 0.00 | 0.00 | 0.00 | 70 | 1009.8 |
| 20260505071002 | 49 | 5 | 0.0 | 0.0 | 0.00 | 0.00 | 0.00 | 70 | 1009.9 |
| 20260505070502 | 49 | 5 | 0.0 | 0.0 | 0.00 | 0.00 | 0.00 | 70 | 1009.9 |
| 20260505070054 | 49 | 5 | 0.0 | 0.0 | 0.00 | 0.00 | 0.00 | 70 | 1009.9 |
| 20260505065558 | 49 | 5 | 0.0 | 0.0 | 0.00 | 0.00 | 0.00 | 70 | 1010.0 |
| 20260505065101 | 49 | 5 | 0.0 | 0.0 | 0.00 | 0.00 | 0.00 | 70 | 1009.9 |
| 20260505065003 | 49 | 5 | 0.0 | 0.0 | 0.00 | 0.00 | 0.00 | 70 | 1009.9 |
| 20260505064504 | 49 | 5 | 0.0 | 0.0 | 0.00 | 0.00 | 0.00 | 69 | 1009.9 |
| 20260505064056 | 49 | 5 | 0.0 | 0.0 | 0.00 | 0.00 | 0.00 | 69 | 1009.9 |
| 20260505063556 | 49 | 5 | 0.0 | 0.0 | 0.00 | 0.00 | 0.00 | 69 | 1009.9 |
| 20260505063046 | 49 | 5 | 0.0 | 0.0 | 0.00 | 0.00 | 0.00 | 69 | 1009.9 |
| 20260505062546 | 49 | 5 | 0.0 | 0.0 | 0.00 | 0.00 | 0.00 | 69 | 1009.9 |
| 20260505062045 | 49 | 5 | 0.0 | 0.0 | 0.00 | 0.00 | 0.00 | 69 | 1009.9 |
| 20260505061542 | 49 | 5 | 0.0 | 0.0 | 0.00 | 0.00 | 0.00 | 69 | 1010.0 |
| 20260505061032 | 49 | 5 | 0.0 | 0.0 | 0.00 | 0.00 | 0.00 | 69 | 1010.0 |
| 20260505060538 | 48 | 5 | 0.0 | 0.0 | 0.00 | 0.00 | 0.00 | 69 | 1010.0 |
| 20260505060034 | 48 | 5 | 0.0 | 0.0 | 0.00 | 0.00 | 0.00 | 69 | 1010.1 |
| 20260505055520 | 48 | 5 | 0.0 | 0.0 | 0.00 | 0.00 | 0.00 | 69 | 1010.1 |
| 20260505055017 | 48 | 5 | 0.0 | 0.0 | 0.00 | 0.00 | 0.00 | 69 | 1010.1 |
| 20260505054517 | 48 | 5 | 0.0 | 0.0 | 0.00 | 0.00 | 0.00 | 69 | 1010.1 |
| 20260505054007 | 48 | 5 | 0.0 | 0.0 | 0.00 | 0.00 | 0.00 | 69 | 1010.0 |
| 20260505053514 | 49 | 5 | 0.0 | 0.0 | 0.00 | 0.00 | 0.00 | 69 | 1010.1 |
| 20260505053002 | 49 | 5 | 0.0 | 0.0 | 0.00 | 0.00 | 0.00 | 69 | 1010.0 |
| 20260505052502 | 49 | 5 | 0.0 | 0.0 | 0.00 | 0.00 | 0.00 | 69 | 1010.1 |
| 20260505052054 | 49 | 5 | 0.0 | 0.0 | 0.00 | 0.00 | 0.00 | 69 | 1010.0 |
| 20260505051555 | 49 | 5 | 0.0 | 0.0 | 0.00 | 0.00 | 0.00 | 69 | 1010.0 |
| 20260505051047 | 50 | 5 | 0.0 | 0.0 | 0.00 | 0.00 | 0.00 | 69 | 1010.0 |
| 20260505050544 | 50 | 5 | 0.0 | 0.0 | 0.00 | 0.00 | 0.00 | 69 | 1010.0 |
| 20260505041558 | 51 | 5 | 0.0 | 1.0 | 0.00 | 0.00 | 0.00 | 68 | 1009.8 |
| 20260505041050 | 51 | 5 | 0.0 | 0.0 | 0.00 | 0.00 | 0.00 | 67 | 1009.8 |
| 20260505040551 | 52 | 5 | 0.0 | 0.0 | 0.00 | 0.00 | 0.00 | 67 | 1009.8 |
| 20260505040054 | 52 | 5 | 0.0 | 0.0 | 0.00 | 0.00 | 0.00 | 67 | 1009.8 |
| 20260505035541 | 52 | 5 | 0.0 | 0.0 | 0.00 | 0.00 | 0.00 | 67 | 1009.9 |
| 20260505035030 | 52 | 5 | 0.0 | 0.0 | 0.00 | 0.00 | 0.00 | 67 | 1009.7 |
| 20260505034529 | 52 | 5 | 0.0 | 0.0 | 0.00 | 0.00 | 0.00 | 67 | 1009.7 |
| 20260505034021 | 53 | 5 | 0.0 | 0.0 | 0.00 | 0.00 | 0.00 | 66 | 1009.7 |
| 20260505033520 | 53 | 5 | 0.0 | 0.0 | 0.00 | 0.00 | 0.00 | 66 | 1009.6 |
| 20260505033015 | 54 | 5 | 0.0 | 0.0 | 0.00 | 0.00 | 0.00 | 66 | 1009.6 |
| 20260505032510 | 54 | 5 | 0.0 | 0.0 | 0.00 | 0.00 | 0.00 | 66 | 1009.7 |
| 20260505032004 | 55 | 5 | 0.0 | 0.0 | 0.00 | 0.00 | 0.00 | 65 | 1009.7 |
| 20260505031611 | 55 | 5 | 0.0 | 0.0 | 0.00 | 0.00 | 0.00 | 65 | 1009.8 |
| 20260505031057 | 56 | 5 | 0.0 | 0.0 | 0.00 | 0.00 | 0.00 | 65 | 1009.7 |
| 20260505030552 | 56 | 5 | 0.0 | 0.0 | 0.00 | 0.00 | 0.00 | 64 | 1009.8 |
| 20260505030046 | 57 | 5 | 0.0 | 0.0 | 0.00 | 0.00 | 0.00 | 63 | 1009.8 |
| 20260505025543 | 57 | 5 | 0.0 | 0.0 | 0.00 | 0.00 | 0.00 | 62 | 1009.8 |
| 20260505025036 | 57 | 5 | 0.0 | 1.0 | 0.00 | 0.00 | 0.00 | 62 | 1010.0 |
| 20260505024545 | 58 | 5 | 0.0 | 1.0 | 0.00 | 0.00 | 0.00 | 61 | 1010.0 |
| 20260505024027 | 58 | 5 | 0.0 | 0.0 | 0.00 | 0.00 | 0.00 | 61 | 1009.9 |
| 20260505023528 | 59 | 5 | 0.0 | 0.0 | 0.00 | 0.00 | 0.00 | 60 | 1009.9 |
| 20260505023033 | 59 | 5 | 0.0 | 0.0 | 0.00 | 0.00 | 0.00 | 59 | 1009.9 |
| 20260505022520 | 60 | 5 | 0.0 | 0.0 | 0.00 | 0.00 | 0.00 | 57 | 1009.9 |
| 20260505022012 | 60 | 5 | 0.0 | 0.0 | 0.00 | 0.00 | 0.00 | 56 | 1010.0 |
| 20260505021515 | 60 | 5 | 0.0 | 0.0 | 0.00 | 0.00 | 0.00 | 57 | 1010.0 |
| 20260505021008 | 61 | 5 | 0.0 | 0.0 | 0.00 | 0.00 | 0.00 | 56 | 1010.0 |
| 20260505020504 | 61 | 5 | 0.0 | 0.0 | 0.00 | 0.00 | 0.00 | 55 | 1010.1 |
| 20260505020104 | 61 | 5 | 0.0 | 1.0 | 0.00 | 0.00 | 0.00 | 55 | 1010.1 |
| 20260505015603 | 61 | 5 | 0.0 | 1.0 | 0.00 | 0.00 | 0.00 | 55 | 1010.1 |
| 20260505015055 | 61 | 5 | 0.0 | 0.0 | 0.00 | 0.00 | 0.00 | 55 | 1010.1 |
| 20260505014603 | 61 | 5 | 0.0 | 1.0 | 0.00 | 0.00 | 0.00 | 55 | 1010.1 |
| 20260505014046 | 61 | 5 | 0.0 | 0.0 | 0.00 | 0.00 | 0.00 | 56 | 1010.0 |
| 20260505013546 | 61 | 5 | 0.0 | 0.0 | 0.00 | 0.00 | 0.00 | 56 | 1010.0 |
| 20260505013042 | 62 | 5 | 0.0 | 0.0 | 0.00 | 0.00 | 0.00 | 55 | 1009.9 |
| 20260505012538 | 62 | 5 | 0.0 | 0.0 | 0.00 | 0.00 | 0.00 | 53 | 1009.9 |
| 20260505012033 | 62 | 5 | 0.0 | 0.0 | 0.00 | 0.00 | 0.00 | 53 | 1009.9 |
| 20260505011531 | 62 | 5 | 0.0 | 0.0 | 0.00 | 0.00 | 0.00 | 53 | 1009.8 |
| 20260505011032 | 62 | 5 | 0.0 | 0.0 | 0.00 | 0.00 | 0.00 | 52 | 1009.7 |
| 20260505010530 | 63 | 5 | 0.0 | 0.0 | 0.00 | 0.00 | 0.00 | 51 | 1009.6 |
| 20260505010022 | 63 | 5 | 0.0 | 0.0 | 0.00 | 0.00 | 0.00 | 51 | 1009.6 |
| 20260505005520 | 63 | 5 | 0.0 | 1.0 | 0.00 | 0.00 | 0.00 | 51 | 1009.6 |
| 20260505005008 | 63 | 5 | 0.0 | 1.0 | 0.00 | 0.00 | 0.00 | 50 | 1009.6 |
| 20260505004514 | 63 | 5 | 0.0 | 1.0 | 0.00 | 0.00 | 0.00 | 51 | 1009.6 |
| 20260505004102 | 64 | 5 | 0.0 | 2.0 | 0.00 | 0.00 | 0.00 | 50 | 1009.6 |
| 20260505003502 | 64 | 5 | 0.0 | 2.0 | 0.00 | 0.00 | 0.00 | 50 | 1009.5 |
| 20260505003054 | 64 | 5 | 0.0 | 3.0 | 0.00 | 0.00 | 0.00 | 49 | 1009.5 |
| 20260505002558 | 64 | 5 | 0.0 | 3.0 | 0.00 | 0.00 | 0.00 | 50 | 1009.4 |
| 20260505002044 | 64 | 5 | 0.0 | 2.0 | 0.00 | 0.00 | 0.00 | 50 | 1009.3 |
| 20260505001552 | 65 | 5 | 0.0 | 2.0 | 0.00 | 0.00 | 0.00 | 49 | 1009.3 |
| 20260505001046 | 65 | 5 | 0.0 | 1.0 | 0.00 | 0.00 | 0.00 | 48 | 1009.2 |
| 20260505000544 | 65 | 5 | 0.0 | 0.0 | 0.00 | 0.00 | 0.00 | 48 | 1009.2 |
| 20260505000036 | 66 | 5 | 0.0 | 4.0 | 0.00 | 0.00 | 0.00 | 47 | 1009.2 |
| 20260504235540 | 66 | 5 | 0.0 | 2.0 | 0.00 | 0.00 | 0.00 | 46 | 1009.1 |
| 20260504235034 | 66 | 5 | 0.0 | 3.0 | 0.00 | 0.00 | 0.00 | 47 | 1009.0 |
| 20260504234532 | 67 | 5 | 0.0 | 3.0 | 0.00 | 0.00 | 0.00 | 46 | 1008.9 |
| 20260504234032 | 67 | 5 | 0.0 | 5.0 | 0.00 | 0.00 | 0.00 | 46 | 1008.9 |
| 20260504233539 | 67 | 5 | 1.0 | 5.0 | 0.00 | 0.00 | 0.00 | 46 | 1008.9 |
| 20260504233028 | 68 | 5 | 0.0 | 5.0 | 0.00 | 0.00 | 0.00 | 45 | 1008.9 |
| 20260504232530 | 68 | 5 | 1.0 | 4.0 | 0.00 | 0.00 | 0.00 | 44 | 1008.8 |
| 20260504232018 | 69 | 5 | 0.0 | 5.0 | 0.00 | 0.00 | 0.00 | 43 | 1008.7 |
| 20260504231522 | 69 | 5 | 1.0 | 6.0 | 0.00 | 0.00 | 0.00 | 42 | 1008.7 |
| 20260504231012 | 69 | 5 | 1.0 | 6.0 | 0.00 | 0.00 | 0.00 | 42 | 1008.6 |
| 20260504230514 | 70 | 5 | 0.0 | 4.0 | 0.00 | 0.00 | 0.00 | 41 | 1008.5 |
| 20260504230006 | 70 | 5 | 1.0 | 4.0 | 0.00 | 0.00 | 0.00 | 42 | 1008.5 |
| 20260504225505 | 70 | 5 | 0.0 | 5.0 | 0.00 | 0.00 | 0.00 | 42 | 1008.5 |
| 20260504225105 | 71 | 5 | 0.0 | 5.0 | 0.00 | 0.00 | 0.00 | 40 | 1008.5 |
| 20260504224508 | 71 | 5 | 0.0 | 4.0 | 0.00 | 0.00 | 0.00 | 40 | 1008.5 |
| 20260504224004 | 71 | 5 | 0.0 | 3.0 | 0.00 | 0.00 | 0.00 | 40 | 1008.5 |
| 20260504223508 | 71 | 5 | 0.0 | 3.0 | 0.00 | 0.00 | 0.00 | 40 | 1008.5 |
| 20260504223102 | 71 | 5 | 0.0 | 6.0 | 0.00 | 0.00 | 0.00 | 40 | 1008.5 |
| 20260504222502 | 71 | 5 | 1.0 | 6.0 | 0.00 | 0.00 | 0.00 | 39 | 1008.6 |
| 20260504222055 | 71 | 5 | 1.0 | 6.0 | 0.00 | 0.00 | 0.00 | 40 | 1008.5 |
| 20260504221554 | 72 | 5 | 2.0 | 6.0 | 0.00 | 0.00 | 0.00 | 40 | 1008.6 |
| 20260504221044 | 72 | 5 | 0.0 | 6.0 | 0.00 | 0.00 | 0.00 | 41 | 1008.7 |
| 20260504220544 | 72 | 5 | 2.0 | 6.0 | 0.00 | 0.00 | 0.00 | 40 | 1008.7 |
| 20260504220038 | 72 | 5 | 1.0 | 8.0 | 0.00 | 0.00 | 0.00 | 42 | 1008.6 |
| 20260504215544 | 72 | 5 | 2.0 | 8.0 | 0.00 | 0.00 | 0.00 | 40 | 1008.7 |
| 20260504215039 | 72 | 5 | 0.0 | 9.0 | 0.00 | 0.00 | 0.00 | 40 | 1008.8 |
| 20260504214550 | 72 | 5 | 3.0 | 10.0 | 0.00 | 0.00 | 0.00 | 40 | 1008.8 |
| 20260504214039 | 72 | 5 | 2.0 | 10.0 | 0.00 | 0.00 | 0.00 | 40 | 1008.7 |
| 20260504213536 | 72 | 5 | 2.0 | 8.0 | 0.00 | 0.00 | 0.00 | 38 | 1008.7 |
| 20260504213038 | 73 | 5 | 2.0 | 6.0 | 0.00 | 0.00 | 0.00 | 40 | 1008.7 |
| 20260504212541 | 72 | 5 | 0.0 | 7.0 | 0.00 | 0.00 | 0.00 | 42 | 1008.7 |
| 20260504212034 | 72 | 5 | 0.0 | 7.0 | 0.00 | 0.00 | 0.00 | 41 | 1008.8 |
| 20260504211534 | 72 | 5 | 1.0 | 7.0 | 0.00 | 0.00 | 0.00 | 40 | 1008.9 |
| 20260504211024 | 72 | 5 | 1.0 | 7.0 | 0.00 | 0.00 | 0.00 | 40 | 1008.9 |
| 20260504210524 | 72 | 5 | 2.0 | 9.0 | 0.00 | 0.00 | 0.00 | 44 | 1008.9 |
| 20260504210031 | 71 | 5 | 2.0 | 9.0 | 0.00 | 0.00 | 0.00 | 40 | 1009.0 |
| 20260504205515 | 71 | 5 | 2.0 | 9.0 | 0.00 | 0.00 | 0.00 | 40 | 1009.0 |
| 20260504205010 | 71 | 5 | 2.0 | 10.0 | 0.00 | 0.00 | 0.00 | 40 | 1009.1 |
| 20260504204517 | 71 | 5 | 4.0 | 10.0 | 0.00 | 0.00 | 0.00 | 40 | 1009.1 |
| 20260504204005 | 71 | 5 | 1.0 | 8.0 | 0.00 | 0.00 | 0.00 | 40 | 1009.1 |
| 20260504203554 | 71 | 5 | 2.0 | 9.0 | 0.00 | 0.00 | 0.00 | 38 | 1009.3 |
| 20260504203502 | 71 | 5 | 2.0 | 9.0 | 0.00 | 0.00 | 0.00 | 40 | 1009.3 |
| 20260504203129 | 72 | 5 | 1.0 | 9.0 | 0.00 | 0.00 | 0.00 | 42 | 1009.4 |
| 20260504202548 | 72 | 5 | 4.0 | 9.0 | 0.00 | 0.00 | 0.00 | 41 | 1009.3 |
| 20260504202051 | 71 | 5 | 2.0 | 9.0 | 0.00 | 0.00 | 0.00 | 42 | 1009.4 |
| 20260504201539 | 71 | 5 | 1.0 | 6.0 | 0.00 | 0.00 | 0.00 | 43 | 1009.4 |
| 20260504201038 | 71 | 5 | 0.0 | 6.0 | 0.00 | 0.00 | 0.00 | 39 | 1009.4 |
| 20260504200532 | 72 | 5 | 1.0 | 7.0 | 0.00 | 0.00 | 0.00 | 41 | 1009.5 |
| 20260504200030 | 72 | 5 | 1.0 | 10.0 | 0.00 | 0.00 | 0.00 | 42 | 1009.5 |
| 20260504195526 | 72 | 5 | 2.0 | 10.0 | 0.00 | 0.00 | 0.00 | 38 | 1009.6 |
| 20260504195022 | 72 | 5 | 2.0 | 9.0 | 0.00 | 0.00 | 0.00 | 42 | 1009.6 |
| 20260504194514 | 71 | 5 | 3.0 | 14.0 | 0.00 | 0.00 | 0.00 | 40 | 1009.6 |
| 20260504194012 | 71 | 5 | 3.0 | 14.0 | 0.00 | 0.00 | 0.00 | 42 | 1009.7 |
| 20260504193502 | 72 | 5 | 1.0 | 8.0 | 0.00 | 0.00 | 0.00 | 43 | 1009.8 |
| 20260504193002 | 71 | 5 | 1.0 | 9.0 | 0.00 | 0.00 | 0.00 | 42 | 1009.9 |
| 20260504192602 | 71 | 5 | 2.0 | 12.0 | 0.00 | 0.00 | 0.00 | 43 | 1009.9 |
| 20260504192102 | 71 | 5 | 2.0 | 12.0 | 0.00 | 0.00 | 0.00 | 42 | 1009.9 |
| 20260504192002 | 71 | 5 | 2.0 | 8.0 | 0.00 | 0.00 | 0.00 | 43 | 1009.9 |
| 20260504191601 | 71 | 5 | 3.0 | 9.0 | 0.00 | 0.00 | 0.00 | 40 | 1009.9 |
| 20260504191100 | 71 | 5 | 2.0 | 9.0 | 0.00 | 0.00 | 0.00 | 41 | 1009.9 |
| 20260504191003 | 71 | 5 | 2.0 | 9.0 | 0.00 | 0.00 | 0.00 | 40 | 1009.9 |
| 20260504190558 | 71 | 5 | 2.0 | 8.0 | 0.00 | 0.00 | 0.00 | 39 | 1010.0 |
| 20260504190057 | 71 | 5 | 1.0 | 8.0 | 0.00 | 0.00 | 0.00 | 41 | 1010.0 |
| 20260504185548 | 71 | 5 | 2.0 | 9.0 | 0.00 | 0.00 | 0.00 | 44 | 1010.0 |
| 20260504185048 | 71 | 5 | 2.0 | 9.0 | 0.00 | 0.00 | 0.00 | 41 | 1010.2 |
| 20260504184542 | 71 | 5 | 3.0 | 8.0 | 0.00 | 0.00 | 0.00 | 44 | 1010.3 |
| 20260504184040 | 70 | 5 | 2.0 | 14.0 | 0.00 | 0.00 | 0.00 | 44 | 1010.4 |
| 20260504183531 | 70 | 5 | 4.0 | 14.0 | 0.00 | 0.00 | 0.00 | 42 | 1010.4 |
| 20260504183032 | 70 | 5 | 2.0 | 10.0 | 0.00 | 0.00 | 0.00 | 40 | 1010.5 |
| 20260504182522 | 70 | 5 | 4.0 | 10.0 | 0.00 | 0.00 | 0.00 | 43 | 1010.6 |
| 20260504182020 | 70 | 5 | 2.0 | 6.0 | 0.00 | 0.00 | 0.00 | 46 | 1010.7 |
| 20260504181512 | 69 | 5 | 1.0 | 9.0 | 0.00 | 0.00 | 0.00 | 43 | 1010.8 |
| 20260504181012 | 69 | 5 | 2.0 | 12.0 | 0.00 | 0.00 | 0.00 | 43 | 1010.8 |
| 20260504180505 | 69 | 5 | 1.0 | 7.0 | 0.00 | 0.00 | 0.00 | 41 | 1010.9 |
| 20260504180007 | 69 | 5 | 2.0 | 7.0 | 0.00 | 0.00 | 0.00 | 45 | 1010.9 |
| 20260504175558 | 69 | 5 | 2.0 | 11.0 | 0.00 | 0.00 | 0.00 | 42 | 1010.9 |
| 20260504175104 | 69 | 5 | 2.0 | 11.0 | 0.00 | 0.00 | 0.00 | 47 | 1011.0 |
| 20260504174552 | 69 | 5 | 3.0 | 10.0 | 0.00 | 0.00 | 0.00 | 44 | 1011.0 |
| 20260504174052 | 69 | 5 | 2.0 | 9.0 | 0.00 | 0.00 | 0.00 | 43 | 1011.1 |
| 20260504173545 | 68 | 5 | 1.0 | 9.0 | 0.00 | 0.00 | 0.00 | 43 | 1011.2 |
| 20260504173057 | 68 | 5 | 2.0 | 9.0 | 0.00 | 0.00 | 0.00 | 43 | 1011.3 |
| 20260504172536 | 68 | 5 | 1.0 | 6.0 | 0.00 | 0.00 | 0.00 | 43 | 1011.5 |
| 20260504172036 | 68 | 5 | 2.0 | 8.0 | 0.00 | 0.00 | 0.00 | 45 | 1011.6 |
| 20260504171528 | 68 | 5 | 3.0 | 10.0 | 0.00 | 0.00 | 0.00 | 44 | 1011.7 |
| 20260504171031 | 67 | 5 | 1.0 | 10.0 | 0.00 | 0.00 | 0.00 | 44 | 1011.7 |
| 20260504170518 | 67 | 5 | 3.0 | 11.0 | 0.00 | 0.00 | 0.00 | 45 | 1011.9 |